Flag for Germany Weather past 2 weeks in Hannover, Lower Saxony, Germany

Now
55 °F

Fog.


Feels Like: 54 °F
Forecast: 56 / 71 °F
Wind: 6 mph from Northeast

Location: Hannover

Current Time: Sep 16, 2014 at 7:27:26 AM

Latest Report: Sep 16, 2014 at 6:50 AM


Visibility: 2 mi

Pressure: 30.04 "Hg

Humidity: 94%

Dew point: 54 °F

Location of HannoverLocation

Historic Weather in Hannover — Graph

°F

Hannover temperature yesterday

Maximum temperature yesterday: 68 °F (at 2:20 PM)
Minimum temperature yesterday: 59 °F (at 1:20 AM)
Average temperature yesterday: 63 °F

Past Weeks' High & Low Weather Summary

 TemperatureHumidityPressure
High77 °F (Sep 5, 3:50 PM)100% (Sep 1, 6:20 AM)30.30 "Hg (Sep 1, 6:20 AM)
Low46 °F (Sep 3, 5:50 AM)50% (Sep 12, 3:20 PM)29.86 "Hg (Sep 6, 3:20 PM)
Average61 °F87%30.08 "Hg
* Reported Sep 1 6:20 AM — Sep 16 6:20 AM, Hannover, Weather by CustomWeather, © 2014

Note: Actual official high and low records may vary slightly from our data, if they occured in-between our weather recording intervals... More about our weather records

Advertising

Hannover weather history for previous 24 hours

 ConditionsComfort  
Time TempWeatherWind HumidityBarometerVisibility
6:20 AM
Sep 16
55 °FFog.7 mph100%30.04 "Hg3 mi
5:50 AM55 °FFog.6 mph100%30.04 "Hg2 mi
5:20 AM55 °FFog.6 mph100%30.04 "Hg1 mi
4:50 AM55 °FFog.6 mph100%30.04 "Hg1 mi
4:20 AM57 °FSleet. Overcast.6 mph100%30.04 "Hg1 mi
3:50 AM57 °FCool.5 mph100%30.04 "Hg1 mi
3:20 AM59 °FCool.3 mph94%30.04 "Hg1 mi
2:50 AM59 °FFog.1 mph94%30.07 "Hg1 mi
2:20 AM59 °FPassing clouds.1 mph100%30.07 "Hg1 mi
1:50 AM59 °FSleet. Overcast.2 mph100%30.04 "Hg1 mi
1:20 AM59 °FSleet. Overcast.5 mph94%30.07 "Hg1 mi
12:50 AM61 °FFog.5 mph94%30.07 "Hg2 mi
12:20 AM61 °FFog.2 mph94%30.07 "Hg2 mi
11:50 PM
Sep 15
61 °FFog.2 mph94%30.07 "Hg2 mi
11:20 PM59 °FCool.2 mph100%30.07 "Hg1 mi
10:50 PM59 °FSleet. Fog.3 mph100%30.07 "Hg2 mi
10:20 PM61 °FSleet. Fog.5 mph94%30.07 "Hg2 mi
9:50 PM61 °FFog.3 mph94%30.07 "Hg2 mi
9:20 PM61 °FSleet. Fog.2 mph94%30.07 "Hg3 mi
8:50 PM61 °FSleet. Fog.3 mph94%30.07 "Hg3 mi
8:20 PM63 °FFog.1 mph94%30.07 "Hg3 mi
7:50 PM64 °FFog.2 mph88%30.07 "Hg4 mi
7:20 PM64 °FClear.6 mph88%30.04 "Hg4 mi
6:50 PM66 °FPartly sunny.7 mph83%30.04 "Hg5 mi
6:20 PM68 °FPartly sunny.9 mph78%30.04 "Hg6 mi
5:50 PM68 °FBroken clouds.9 mph83%30.04 "Hg6 mi
5:20 PM68 °FPartly sunny.7 mph83%30.07 "Hg4 mi
4:20 PM66 °FPartly sunny.14 mph88%30.07 "Hg4 mi
3:50 PM66 °FPartly sunny.12 mph88%30.07 "Hg4 mi
3:20 PM66 °FBroken clouds.12 mph88%30.07 "Hg6 mi
2:50 PM68 °FPartly sunny.10 mph83%30.07 "Hg6 mi
2:20 PM68 °FPartly sunny.8 mph83%30.07 "Hg6 mi
1:50 PM66 °FPartly sunny.9 mph88%30.09 "Hg6 mi
1:20 PM66 °FPartly sunny.7 mph88%30.09 "Hg5 mi
12:50 PM66 °FPartly sunny.8 mph88%30.09 "Hg4 mi
12:20 PM64 °FPartly sunny.7 mph94%30.09 "Hg4 mi
11:50 AM63 °FDrizzle. Fog.6 mph100%30.09 "Hg2 mi
11:20 AM63 °FFog.7 mph100%30.09 "Hg2 mi
10:50 AM63 °FPartly sunny.6 mph100%30.09 "Hg4 mi
10:20 AM63 °FFog.6 mph100%30.09 "Hg3 mi
9:50 AM63 °FFog.6 mph94%30.09 "Hg2 mi
9:20 AM61 °FFog.6 mph100%30.09 "Hg2 mi
8:50 AM61 °FFog.6 mph100%30.07 "Hg1 mi
8:20 AM61 °FFog.5 mph100%30.07 "Hg1 mi
7:50 AM61 °FFog.5 mph100%30.07 "Hg0 mi
7:20 AM61 °FFog.3 mph100%30.07 "Hg0 mi
Weather by CustomWeather, © 2014

See weather overviewHow to use our weather pages